This is the latest recevied weather packets stored in our database for station/object KB9MLJ. If no packets are shown the sender has not sent any weather packets the latest 1 day(s).
| Time | Temp. | Humidity | Pressure | Rain* | Wind** | Luminosity | Snow |
|---|---|---|---|---|---|---|---|
| 1778027786 | 11.67° C | 49% | 1009.2 hPa | 0 mm | 1.34 m/s, 336° | 2 W/m² | - |
| 1778027482 | 11.67° C | 49% | 1008.8 hPa | 0 mm | 1.79 m/s, 286° | 3 W/m² | - |
| 1778027178 | 11.67° C | 50% | 1008.8 hPa | 0 mm | 1.34 m/s, 298° | 5 W/m² | - |
| 1778026874 | 11.67° C | 51% | 1008.5 hPa | 0 mm | 2.24 m/s, 322° | 9 W/m² | - |
| 1778026570 | 11.67° C | 52% | 1008.8 hPa | 0 mm | 1.34 m/s, 331° | 6 W/m² | - |
| 1778026268 | 11.67° C | 54% | 1008.8 hPa | 0 mm | 1.34 m/s, 305° | 6 W/m² | - |
| 1778025965 | 11.67° C | 55% | 1008.5 hPa | 0 mm | 1.34 m/s, 321° | 9 W/m² | - |
| 1778025662 | 11.67° C | 54% | 1008.8 hPa | 0 mm | 1.34 m/s, 308° | 10 W/m² | - |
| 1778025360 | 11.67° C | 54% | 1008.8 hPa | 0 mm | 1.34 m/s, 315° | 12 W/m² | - |
| 1778025057 | 11.67° C | 53% | 1008.5 hPa | 0 mm | 1.79 m/s, 321° | 17 W/m² | - |
| 1778024754 | 11.67° C | 52% | 1008.5 hPa | 0 mm | 2.24 m/s, 341° | 21 W/m² | - |
| 1778024450 | 12.22° C | 52% | 1008.2 hPa | 0 mm | 2.68 m/s, 311° | 30 W/m² | - |
| 1778024148 | 12.22° C | 52% | 1008.5 hPa | 0 mm | 2.24 m/s, 323° | 31 W/m² | - |
| 1778023845 | 12.22° C | 52% | 1008.5 hPa | 0 mm | 2.24 m/s, 271° | 37 W/m² | - |
| 1778023543 | 12.22° C | 53% | 1008.2 hPa | 0 mm | 2.24 m/s, 334° | 34 W/m² | - |
| 1778023241 | 12.22° C | 52% | 1008.5 hPa | 0 mm | 1.79 m/s, 333° | 37 W/m² | - |
| 1778022937 | 12.22° C | 52% | 1008.5 hPa | 0 mm | 1.79 m/s, 326° | 63 W/m² | - |
| 1778022636 | 12.22° C | 53% | 1008.5 hPa | 0 mm | 1.79 m/s, 333° | 99 W/m² | - |
| 1778022333 | 12.22° C | 52% | 1008.2 hPa | 0 mm | 3.13 m/s, 345° | 87 W/m² | - |
| 1778022029 | 12.22° C | 53% | 1008.8 hPa | 0 mm | 2.24 m/s, 356° | 68 W/m² | - |
| 1778021726 | 12.22° C | 54% | 1008.5 hPa | 0 mm | 0.89 m/s, 297° | 102 W/m² | - |
| 1778021422 | 12.22° C | 53% | 1008.8 hPa | 0 mm | 2.24 m/s, 265° | 92 W/m² | - |
| 1778021120 | 12.22° C | 52% | 1008.8 hPa | 0 mm | 1.79 m/s, 315° | 87 W/m² | - |
| 1778020817 | 12.22° C | 52% | 1008.8 hPa | 0 mm | 1.34 m/s, 308° | 105 W/m² | - |
| 1778020514 | 12.22° C | 51% | 1009.2 hPa | 0 mm | 3.13 m/s, 264° | 111 W/m² | - |
* Rain latest hour (hover to see other rain measurements)
** Current wind speed in m/s (hover to see current wind gust speed)